Vertical_Velocity
-1 0 -2 1 2 -1 -2 2 13 -2 6 7 3 6 -0 3 1 2 6 5 5 1 2 -3 -1 -1 -1 0 1 1 -0 -0 -1 -0 -2 1 3 2 -0 -2 -1 -0 1
-0 5 -2 2 8 3 5 -0 7 -5 7 12 5 1 1 -2 -1 -4 -3 -2 -3 -1 3 3 0 1 -0 -1 2 1 -1 1 1 2 0 -1 0 1 -2 -1 3 -1 0
-3 -7 2 26 -2 40 13 16 1 3 7 -1 -1 -3 -2 -3 -1 -1 -0 -2 2 1 -2 -0 -2 -3 -3 -1 -1 2 1 -1 -1 -1 -0 1 0 3 -1 1 2 -1 -3
0 -16 3 4 -5 -10 -0 -4 2 -3 -1 -2 -4 -1 -0 -1 -0 -2 -1 -3 -2 -2 -2 -1 -3 -1 -4 1 -0 0 0 1 -0 -2 1 1 1 0 -0 2 -1 1 1
-1 -3 4 3 -1 -2 -3 -5 1 -1 -3 -4 -1 -1 3 1 -2 -0 -1 -2 -1 -2 -2 -1 -2 -4 -3 -0 -2 -1 -1 -3 -2 -2 -1 -1 1 1 -1 0 2 0 -1
5 -3 -3 -2 -1 -2 1 3 -2 1 -2 0 -5 2 -3 -0 -0 -3 -1 0 -0 1 -0 -0 2 -1 -3 -2 1 -1 -1 2 2 0 -1 -2 -2 -1 -1 1 1 0 2
2 -3 -6 2 1 -2 2 -5 -3 -1 -2 -1 -5 1 -1 1 -3 -4 -1 0 0 -2 -2 -1 -1 3 -0 -3 0 -0 1 -0 -1 -2 -3 -3 2 9 8 3 -1 -1 -2
-2 -6 1 1 2 1 1 1 -1 1 -1 0 3 -1 -1 -2 -2 0 -1 0 -2 -1 -3 0 -1 -1 -2 -1 -1 1 -3 -1 0 -1 0 -0 -3 1 -2 -3 -1 2 2
-2 1 -4 2 -2 6 -2 -0 -1 2 1 2 -3 -2 -6 1 -1 -2 1 -1 0 -0 -3 1 -3 -3 -1 -3 -1 -3 1 -4 0 -0 2 -2 0 -3 -3 -1 1 -0 -3
-2 3 -0 -1 3 -0 -2 -1 -2 1 -4 0 1 -2 2 -5 -1 2 -0 0 1 -2 0 -2 -1 -1 -3 -1 -2 0 -2 1 -3 -1 1 -2 -3 0 -2 -1 -1 -1 -1
1 -1 1 3 -2 0 3 1 -1 -3 4 -0 1 -0 -5 2 -0 -3 -0 -3 -0 -1 -3 -1 -1 0 -0 -1 -2 1 -2 -1 2 -2 -3 1 0 -2 -1 -2 -1 0 -0
4 -1 3 -0 0 -0 -2 2 -1 -0 -2 -0 3 -2 1 -1 0 0 3 -3 -2 -1 -3 -1 -3 -2 1 -0 -5 -3 -1 -1 -2 -2 -2 -1 -1 -1 -1 0 1 -0 -2
0 2 1 -1 -1 -0 1 -1 -0 0 -1 2 -1 -1 1 2 -2 -1 2 0 -1 -1 -0 0 -3 -1 -2 -2 1 -1 -3 -1 1 1 -1 -1 -0 -2 -4 -3 -1 -0 1
-1 3 -2 -2 -2 -2 -0 1 -1 -4 -2 -3 2 -1 -2 1 3 -1 -1 0 -0 -3 -0 -0 1 -2 -1 2 -0 1 -6 -2 -1 -1 -1 -0 0 -1 1 -1 0 -0 -2
-2 -3 -2 -2 -3 1 -1 0 -3 0 -0 2 3 2 -1 -1 3 -1 0 2 -3 -1 1 2 -0 -3 2 3 -1 -4 -3 0 -1 -1 -1 1 1 0 1 2 -0 -0 0
-1 -0 3 2 3 1 2 -0 2 -2 2 1 1 1 -1 1 -1 -2 -3 1 0 2 -0 -2 -5 -2 1 -2 -3 -4 -3 -2 -3 -1 -0 -0 0 -1 -2 -4 -3 -2 -1
2 2 -0 -1 -0 2 2 1 0 5 5 0 -2 -2 -4 -2 3 -2 2 -0 -2 -3 -3 -4 -2 -0 -2 -4 -4 -4 -4 -1 -2 -3 -2 -1 0 1 -1 -1 0 -2 -3
2 -1 0 -0 1 2 2 2 4 2 1 -1 -2 0 -2 -2 3 2 -0 -3 -3 -1 -0 -1 -1 -2 -2 -3 -3 -1 -1 -1 0 -3 -3 -2 1 1 1 -1 -1 -1 -2
1 2 1 2 3 2 2 1 1 2 -0 1 2 2 0 4 1 -1 -2 -2 -1 -1 -0 -1 -2 -4 -6 -4 -3 1 0 -0 -1 -2 -2 -2 -1 -3 -2 -2 -2 -0 1
1 2 4 4 2 1 2 2 2 1 1 1 -0 -1 1 -1 -1 -3 -4 -2 -1 -1 -1 -0 -3 -4 -4 -4 -2 3 2 -1 -1 -1 -1 0 -3 -1 0 1 -1 -4 -4
2 1 1 0 0 1 -1 -2 -0 -0 -1 -1 1 0 0 -0 -2 -2 -1 -2 -1 -2 -3 -4 -2 -2 -2 -3 -5 4 3 -2 -1 1 -1 1 3 2 2 1 -2 -2 -3
1 1 0 2 1 1 3 2 2 -0 -0 1 -1 -1 -1 -2 -3 -2 -1 -1 -2 -3 -2 -2 -2 -1 -1 -5 -6 -8 -6 5 1 2 -1 -5 -1 -2 -1 0 -1 -2 -1
-1 -1 -1 -0 1 1 2 1 -0 0 -0 -1 -1 -3 -3 -1 -1 -1 -2 -2 -1 -2 -3 -4 -4 -4 -1 -0 -3 -3 -2 -5 -7 -1 -4 -5 -4 -5 -0 -5 -5 -3 -1
-0 3 1 0 1 1 1 1 1 -1 -1 -1 -2 -1 -0 -1 -2 -1 -0 -1 -1 -1 -3 -3 -2 -4 -4 0 4 -2 -1 1 -3 -10 -19 -6 4 -2 1 -5 -2 -0 -2
-1 -1 1 1 1 1 -0 1 0 1 2 1 -1 -0 -1 -1 -1 -0 0 0 -0 -2 -1 -0 -0 -1 -2 -1 -1 1 2 1 4 3 -2 -8 -17 -31 -33 -32 -18 -4 -4
4 -0 2 2 1 1 0 1 -1 -0 -0 -1 0 -0 -1 -1 0 1 1 0 -1 -2 -2 -2 -1 -1 0 -1 -0 -0 -3 -2 -3 8 3 0 7 -9 -3 0 -3 -17 -8
Height
1538 1539 1540 1539 1537 1537 1535 1537 1537 1538 1538 1538 1539 1538 1539 1539 1539 1539 1539 1538 1538 1538 1537 1537 1536 1535 1535 1535 1534 1534 1533 1533 1533 1533 1533 1532 1533 1533 1533 1533 1533 1534 1534
1535 1539 1540 1539 1538 1537 1536 1536 1535 1538 1537 1538 1538 1539 1540 1539 1539 1539 1539 1538 1538 1538 1538 1538 1538 1537 1537 1536 1536 1535 1535 1534 1534 1534 1533 1533 1534 1534 1534 1534 1535 1534 1535
1533 1538 1536 1535 1536 1532 1535 1535 1535 1534 1536 1537 1538 1539 1540 1540 1540 1539 1539 1539 1539 1538 1538 1538 1537 1537 1537 1537 1537 1537 1537 1536 1535 1535 1534 1534 1534 1534 1534 1535 1535 1535 1535
1534 1536 1535 1534 1535 1533 1536 1537 1537 1538 1538 1538 1539 1540 1540 1540 1539 1539 1538 1539 1539 1539 1539 1538 1537 1538 1538 1538 1538 1538 1537 1537 1537 1536 1536 1536 1535 1535 1535 1535 1535 1535 1535
1529 1534 1533 1537 1535 1536 1536 1538 1538 1538 1538 1539 1540 1541 1540 1539 1538 1539 1538 1539 1538 1538 1538 1538 1538 1538 1539 1539 1538 1538 1538 1538 1537 1538 1537 1537 1536 1536 1535 1536 1535 1534 1535
1532 1533 1535 1535 1537 1537 1538 1538 1539 1539 1539 1539 1540 1540 1539 1539 1539 1539 1540 1540 1539 1539 1539 1538 1538 1538 1538 1538 1538 1538 1538 1538 1538 1538 1538 1537 1537 1536 1535 1534 1534 1534 1534
1530 1531 1535 1537 1537 1537 1538 1538 1539 1539 1539 1539 1540 1539 1539 1539 1539 1540 1540 1540 1539 1539 1539 1539 1538 1538 1538 1539 1539 1539 1538 1538 1538 1537 1537 1537 1536 1536 1535 1535 1534 1534 1533
1530 1532 1534 1536 1537 1537 1537 1537 1539 1538 1539 1539 1539 1539 1539 1539 1539 1540 1539 1539 1539 1538 1539 1538 1537 1537 1537 1538 1537 1538 1537 1538 1537 1537 1536 1536 1535 1534 1534 1533 1532 1532 1532
1530 1532 1533 1534 1535 1536 1536 1538 1538 1538 1539 1538 1538 1538 1539 1539 1539 1539 1538 1538 1537 1536 1536 1536 1536 1536 1536 1536 1536 1536 1536 1536 1536 1535 1535 1534 1534 1534 1533 1532 1532 1531 1530
1530 1531 1532 1533 1533 1534 1535 1537 1536 1537 1538 1538 1538 1538 1538 1538 1539 1538 1537 1537 1535 1535 1535 1535 1535 1534 1534 1534 1535 1534 1535 1534 1534 1533 1533 1532 1532 1531 1530 1529 1529 1529 1528
1526 1529 1531 1531 1532 1533 1534 1535 1535 1537 1537 1537 1536 1536 1537 1538 1537 1538 1537 1536 1535 1535 1535 1535 1535 1534 1534 1532 1533 1532 1532 1532 1531 1530 1531 1529 1528 1528 1527 1527 1527 1526 1526
1522 1524 1526 1528 1529 1531 1532 1533 1533 1534 1535 1536 1536 1536 1536 1537 1537 1536 1536 1534 1534 1533 1534 1534 1533 1533 1533 1532 1531 1531 1531 1530 1530 1528 1528 1527 1525 1524 1524 1523 1521 1521 1521
1519 1521 1523 1525 1527 1529 1530 1532 1532 1533 1535 1535 1536 1535 1535 1535 1536 1535 1534 1532 1533 1533 1533 1532 1532 1531 1531 1529 1527 1526 1527 1527 1526 1524 1524 1523 1522 1521 1521 1520 1519 1518 1517
1515 1518 1520 1522 1525 1527 1528 1530 1531 1531 1534 1535 1534 1533 1533 1534 1534 1533 1533 1532 1532 1532 1531 1530 1528 1528 1528 1525 1523 1522 1524 1524 1522 1521 1520 1518 1517 1516 1515 1514 1514 1513 1513
1512 1515 1517 1520 1522 1524 1526 1527 1528 1530 1532 1532 1532 1531 1531 1532 1532 1533 1531 1531 1530 1530 1528 1527 1525 1526 1525 1521 1519 1519 1521 1520 1518 1517 1515 1514 1512 1510 1510 1510 1510 1510 1510
1509 1512 1514 1517 1519 1521 1523 1524 1526 1528 1529 1529 1528 1529 1529 1531 1530 1531 1530 1529 1529 1526 1525 1523 1523 1524 1521 1519 1519 1519 1519 1517 1515 1513 1512 1510 1508 1506 1505 1504 1504 1505 1504
1503 1507 1510 1513 1516 1518 1520 1521 1524 1525 1525 1526 1527 1528 1529 1530 1530 1530 1528 1525 1525 1524 1522 1521 1521 1519 1517 1517 1516 1516 1514 1512 1510 1509 1508 1507 1505 1503 1503 1501 1501 1500 1500
1499 1502 1506 1509 1512 1514 1517 1519 1521 1522 1522 1524 1525 1526 1526 1528 1527 1525 1524 1523 1522 1521 1519 1518 1517 1515 1514 1513 1513 1512 1509 1507 1506 1504 1504 1503 1502 1500 1499 1498 1498 1496 1495
1494 1498 1501 1505 1508 1510 1513 1516 1518 1519 1520 1521 1523 1523 1525 1525 1523 1522 1522 1521 1520 1519 1518 1516 1514 1512 1510 1510 1509 1508 1505 1503 1501 1499 1500 1499 1499 1497 1496 1496 1494 1493 1491
1490 1494 1497 1500 1503 1506 1509 1512 1514 1515 1517 1519 1520 1521 1522 1521 1521 1520 1520 1519 1519 1518 1516 1513 1511 1509 1507 1505 1504 1503 1500 1497 1495 1495 1496 1496 1494 1493 1491 1489 1487 1486 1485
1483 1487 1491 1494 1498 1501 1503 1506 1510 1512 1514 1516 1518 1519 1519 1519 1518 1518 1518 1517 1516 1514 1513 1511 1509 1507 1504 1500 1497 1496 1494 1492 1491 1492 1493 1491 1489 1488 1486 1482 1481 1479 1478
1473 1479 1484 1489 1493 1497 1500 1503 1507 1509 1510 1513 1514 1516 1517 1516 1517 1517 1516 1515 1513 1512 1510 1509 1506 1504 1501 1498 1495 1492 1490 1490 1489 1490 1488 1487 1485 1484 1482 1478 1476 1474 1472
1463 1469 1477 1484 1488 1493 1497 1499 1502 1504 1507 1509 1511 1513 1514 1515 1515 1514 1513 1512 1510 1509 1507 1505 1504 1502 1499 1497 1495 1496 1493 1490 1482 1479 1481 1480 1479 1477 1475 1472 1470 1469 1466
1455 1464 1471 1478 1483 1488 1491 1495 1498 1500 1503 1506 1508 1510 1511 1512 1512 1511 1509 1508 1507 1505 1504 1502 1500 1498 1498 1495 1494 1493 1493 1491 1488 1476 1473 1473 1472 1470 1468 1466 1464 1461 1459
1448 1457 1466 1472 1478 1482 1487 1492 1495 1498 1501 1503 1505 1507 1508 1508 1508 1507 1506 1505 1503 1502 1501 1499 1497 1496 1495 1493 1491 1488 1487 1485 1484 1480 1468 1467 1466 1466 1464 1462 1460 1457 1455
1443 1452 1460 1465 1472 1477 1482 1487 1491 1495 1498 1500 1502 1503 1504 1505 1504 1503 1502 1501 1499 1498 1497 1496 1494 1493 1491 1489 1488 1486 1484 1482 1479 1475 1467 1461 1458 1457 1457 1455 1454 1453 1450